Weather History for St. Stephen, NB

Change the Weather History Date:

Saturday, October 27, 2012

  Actual Average Record
Temperature  
Mean Temperature 52 °F -  
Max Temperature 68 °F - - ()
Min Temperature 35 °F - - ()
Degree Days  
Heating Degree Days 14    
Growing Degree Days 2 (Base 50)    
Moisture  
Dew Point 35 °F    
Average Humidity 67    
Maximum Humidity 97    
Minimum Humidity 16    
Precipitation  
Precipitation 0.00 in - - ()
Sea Level Pressure  
Sea Level Pressure 30.11 in    
Wind  
Wind Speed 2 mph ()    
Max Wind Speed 6 mph    
Max Gust Speed -    
T = Trace of Precipitation, MM = Missing Value Source: Averaged Metar Reports

Daily Weather History Graph

Daily Weather History Graph

Search for Another Location

Airport:

Trip Planner

Search our weather history database for the weather conditions in past years. The results will help you decide how hot, cold, wet, or windy it might be!

Date:

Astronomy

Oct. 27, 2012 Rise Set
Actual Time 8:01 AM ADT 6:23 PM ADT
Civil Twilight 7:31 AM ADT 6:53 PM ADT
Nautical Twilight 6:56 AM ADT 7:28 PM ADT
Astronomical Twilight 6:22 AM ADT 8:02 PM ADT
Moon 5:10 PM ADT (10/27) 5:48 AM ADT (10/27)
Length of Visible Light 11h 22m
Length of Day
10h 21m
Waxing Gibbous, 95% of the Moon is Illuminated
Oct 27
Waxing Gibbous
Oct 29
Full
Nov 6
Last Quarter
Nov 13
New
Nov 20
First Quarter

Hourly Weather History & Observations

Time (ADT) Temp. Dew Point Humidity Pressure Visibility Wind Dir Wind Speed Gust Speed Precip Events Conditions
12:00 AM 40 °F 38 °F 91% 30.13 in - WSW 1.2 mph - -  
12:00 AM 39.7 °F 38.3 °F 95% 30.13 in - WSW 1.2 mph - N/A   Unknown
1:00 AM 39.4 °F 37.9 °F 95% 30.14 in - WSW 1.2 mph - N/A   Unknown
2:00 AM 38.1 °F 36.9 °F 95% 30.14 in - Calm Calm - N/A   Unknown
3:00 AM 37 °F 36 °F 94% 30.14 in - Calm Calm - -  
3:00 AM 37.0 °F 36.0 °F 96% 30.14 in - Calm Calm - N/A   Unknown
4:00 AM 36.9 °F 36.0 °F 97% 30.13 in - WSW 1.2 mph - N/A   Unknown
5:00 AM 35.8 °F 34.9 °F 97% 30.12 in - Calm Calm - N/A   Unknown
6:00 AM 35 °F 35 °F 97% 30.13 in - Calm Calm - -  
6:00 AM 35.2 °F 34.5 °F 97% 30.13 in - Calm Calm - N/A   Unknown
7:00 AM 35.6 °F 34.9 °F 97% 30.12 in - West 1.2 mph - N/A   Unknown
8:00 AM 35.4 °F 34.5 °F 97% 30.12 in - WSW 1.2 mph - N/A   Unknown
9:00 AM 39 °F 38 °F 93% 30.13 in - WSW 1.2 mph - -  
9:00 AM 39.0 °F 37.8 °F 95% 30.13 in - WSW 1.2 mph - N/A   Unknown
10:00 AM 47.8 °F 41.9 °F 80% 30.13 in - Calm Calm - N/A   Unknown
11:00 AM 56.5 °F 43.7 °F 62% 30.13 in - ESE 2.3 mph - N/A   Unknown
12:00 PM 62 °F 30 °F 18% 30.12 in - East 5.8 mph - -  
12:00 PM 61.5 °F 29.7 °F 30% 30.12 in - East 5.8 mph - N/A   Unknown
1:00 PM 63.5 °F 30.7 °F 29% 30.11 in - East 4.6 mph - N/A   Unknown
2:00 PM 65.3 °F 30.9 °F 28% 30.09 in - ENE 2.3 mph - N/A   Unknown
3:00 PM 67 °F 31 °F 16% 30.07 in - ENE 3.5 mph - -  
3:00 PM 67.5 °F 31.5 °F 26% 30.07 in - ENE 3.5 mph - N/A   Unknown
4:00 PM 67.8 °F 31.6 °F 26% 30.06 in - NNE 4.6 mph - N/A   Unknown
5:00 PM 65.8 °F 33.4 °F 30% 30.06 in - NE 5.8 mph - N/A   Unknown
6:00 PM 62 °F 33 °F 21% 30.07 in - NNE 5.8 mph - -  
6:00 PM 61.9 °F 31.5 °F 32% 30.07 in - NNE 5.8 mph - N/A   Unknown
7:00 PM 56.7 °F 27.1 °F 32% 30.07 in - NE 4.6 mph - N/A   Unknown
8:00 PM 47.7 °F 35.8 °F 63% 30.10 in - Calm Calm - N/A   Unknown
9:00 PM 43 °F 36 °F 70% 30.11 in - NE 1.2 mph - -  
9:00 PM 43.0 °F 36.5 °F 78% 30.11 in - NE 1.2 mph - N/A   Unknown
10:00 PM 39.7 °F 35.4 °F 85% 30.12 in - Calm Calm - N/A   Unknown
11:00 PM 39.0 °F 35.6 °F 88% 30.11 in - Calm Calm - N/A   Unknown